[[{"header":{"parameterUnit":"m.s-1","parameterCategory":1,"la1":30.2991,"la2":30.254,"lo1":-89.0895,"lo2":-89.0444,"dx":0.0017,"dy":0.0017,"nx":28,"ny":28,"refTime":"2022-11-03T21:00:00:Z","depth":0,"parameterNumber":2,"parameterNumberName":"U-component_of_WINDS"},"data":[0,0,0,0,0,0,0,0,0,0,0,0,0,0,0,0,0,0,0,0,0,0,0,0,0,0,0,0,0,0,0,0,0,0,0,0,0,0,0,0,0,0,0,0,0,0,0,0,0,0,0,0,0,0,0,0,0,0,-4.3735,-4.3736,0,-4.3812,-4.3813,-4.3814,-4.3759,-4.3756,-4.3754,-4.3752,-4.383,-4.3834,-4.3838,0,0,0,0,0,0,0,0,0,0,0,0,0,-4.3543,-4.3547,-4.3735,-4.3736,-4.3737,-4.3812,-4.3813,-4.3814,-4.3759,-4.3756,-4.3753,-4.3751,-4.3828,-4.3833,-4.3839,0,0,0,0,0,0,0,0,0,0,0,0,0,-4.3624,-4.3548,-4.3735,-4.3719,-4.3718,-4.3812,-4.3813,-4.3814,-4.376,-4.3756,-4.3753,-4.3749,-4.3827,-4.3833,-4.3839,-4.3953,0,0,-4.3859,-4.3862,0,0,0,0,0,0,0,0,-4.3619,-4.3631,-4.372,-4.372,-4.372,-4.3772,-4.3774,-4.3861,-4.3761,-4.3744,-4.3752,-4.3747,-4.3814,-4.3821,-4.3843,-4.3956,-4.396,-4.386,-4.3864,-4.3867,-4.3869,0,0,0,0,0,0,0,-4.3614,-4.3627,-4.3766,-4.3722,-4.3721,-4.3708,-4.3716,-4.379,-4.3798,-4.3745,-4.3741,-4.3751,-4.3813,-4.3837,-4.3845,-4.3961,-4.386,-4.3866,-4.387,-4.3872,-4.4173,-4.4177,0,0,0,0,0,0,-4.361,-4.3623,-4.3763,-4.3768,-4.3659,-4.3715,-4.3723,-4.3759,-4.3797,-4.38,-4.3754,-4.3749,-4.3828,-4.3837,-4.3847,-4.3983,-4.3867,-4.3873,-4.3877,-4.4169,-4.4174,-4.4178,0,0,0,0,0,0,-4.3606,-4.3623,-4.376,-4.3695,-4.3711,-4.3722,-4.3763,-4.3762,-4.3787,-4.3804,-4.3806,-4.3778,-4.3825,-4.3838,-4.3927,-4.3985,-4.3876,-4.3882,-4.4164,-4.417,-4.4176,-4.4255,0,0,0,0,0,0,-4.36,-4.3621,-4.3664,-4.3696,-4.3715,-4.3839,-4.3766,-4.3767,-4.3798,-4.3791,-4.3827,-4.3829,-4.3823,-4.3918,-4.3934,-4.3992,-4.3887,-4.4159,-4.4167,-4.4174,-4.4247,-4.4263,-4.4276,0,0,0,0,0,-4.3594,-4.3683,-4.3666,-4.3684,-4.3768,-4.3842,-4.3853,-4.3845,-4.3803,-4.3846,-4.3858,-4.3828,-4.3977,-4.3928,-4.3945,-4.4006,-4.4155,-4.4165,-4.4174,-4.4241,-4.426,-4.4276,0,0,0,0,0,0,-4.3656,-4.3686,-4.3669,-4.3771,-4.3804,-4.3833,-4.3886,-4.3865,-4.3911,-4.3902,-4.3891,-4.3899,-4.3993,-4.4009,-4.3953,-4.4119,-4.4059,-4.4072,-4.4104,-4.4123,-4.4137,-4.413,-4.3892,0,0,0,0,0,-4.3682,-4.3739,-4.3763,-4.3851,-4.3869,-4.3875,-4.3907,-4.3898,-4.3932,-4.3946,-4.3964,-4.3999,-4.4053,-4.4089,-4.414,-4.425,-4.4257,-4.4301,-4.4316,-4.4328,-4.4338,-4.4399,-4.4418,-4.4208,-4.4208,-4.4208,0,0,-4.3736,-4.3759,-4.3796,-4.3864,-4.3889,-4.3949,-4.3887,-4.3953,-4.3997,-4.3956,-4.4041,-4.4056,-4.4094,-4.4195,-4.424,-4.421,-4.4398,-4.4339,-4.4349,-4.4353,-4.441,-4.443,-4.4447,-4.4215,-4.4213,-4.4212,0,0,-4.3863,-4.3887,-4.3963,-4.399,-4.403,-4.4034,-4.4053,-4.4085,-4.4093,-4.4179,-4.415,-4.4203,-4.4297,-4.4326,-4.4353,-4.4496,-4.447,-4.4513,-4.4588,-4.4647,-4.4664,-4.4678,-4.4729,-4.4747,-4.4524,-4.4524,-4.4524,0,-4.3924,-4.4013,-4.4005,-4.4074,-4.4105,-4.4072,-4.4149,-4.4176,-4.423,-4.4252,-4.4219,-4.4338,-4.4361,-4.4468,-4.4503,-4.4527,-4.4548,-4.4507,-4.4662,-4.4677,-4.469,-4.4738,-4.4757,-4.4529,-4.4529,-4.4528,-4.4528,0,-4.4087,-4.4149,-4.4206,-4.426,-4.4298,-4.4371,-4.4374,-4.4414,-4.4403,-4.4411,-4.45,-4.4527,-4.4584,-4.4609,-4.4599,-4.4716,-4.4696,-4.4664,-4.4603,-4.4715,-4.476,-4.4779,-4.4536,-4.4534,-4.4533,-4.4532,0,0,-4.4252,-4.4303,-4.4324,-4.4349,-4.4391,-4.4439,-4.4512,-4.4568,-4.4602,-4.4642,-4.4702,-4.4784,-4.4755,-4.4785,-4.4778,-4.4831,-4.4942,-4.4791,-4.4792,-4.4817,-4.5073,-4.5096,-4.5118,-4.4926,-4.493,-4.4933,-4.5069,0,-4.4382,-4.4507,-4.4503,-4.462,-4.4678,-4.465,-4.4713,-4.4746,-4.4757,-4.4808,-4.482,-4.4878,-4.4835,-4.4853,-4.4904,-4.4918,-4.4993,-4.4908,-4.4982,-4.4985,-4.4971,-4.5141,-4.5165,-4.5293,-4.5087,-4.509,-4.5092,0,-4.4548,-4.4594,-4.4717,-4.4753,-4.4777,-4.4834,-4.4886,-4.4935,-4.4974,-4.4978,-4.5014,-4.5,-4.5074,-4.5014,-4.5117,-4.5059,-4.509,-4.5102,-4.5107,-4.5111,-4.5043,-4.5149,-4.5333,-4.5352,-4.512,-4.5118,-4.5116,0,-4.4655,-4.4749,-4.4834,-4.4857,-4.4901,-4.4941,-4.4962,-4.4996,-4.5031,-4.5078,-4.51,-4.5155,-4.5184,-4.5227,-4.5228,-4.5185,-4.5332,-4.5272,-4.5337,-4.5337,-4.5367,-4.5365,-4.5557,-4.539,-4.539,-4.539,-4.5389,0,-4.4799,-4.4875,-4.4883,-4.4936,-4.5021,-4.5017,-4.5102,-4.5118,-4.515,-4.5206,-4.5186,-4.5239,-4.5238,-4.5293,-4.5295,-4.5379,-4.5393,-4.5399,-4.5398,-4.5399,-4.5398,-4.5417,-4.5408,-4.5395,-4.5394,-4.5393,-4.5392,0,-4.4932,-4.494,-4.5032,-4.5068,-4.5079,-4.514,-4.517,-4.5221,-4.5231,-4.5302,-4.5319,-4.5335,-4.5398,-4.5404,-4.5478,-4.5479,-4.5581,-4.5572,-4.5568,-4.5566,-4.563,-4.5624,-4.584,-4.5868,-4.5685,-4.5686,-4.5688,0,-4.5021,-4.5079,-4.5122,-4.5158,-4.5181,-4.524,-4.5276,-4.5276,-4.5314,-4.5364,-4.5409,-4.547,-4.5519,-4.5622,-4.564,-4.5697,-4.5687,-4.576,-4.5695,-4.5696,-4.5687,-4.5683,-4.5689,-4.5771,-4.5773,-4.5774,-4.5776,0,-4.518,-4.5182,-4.5234,-4.529,-4.5333,-4.5377,-4.5417,-4.5448,-4.5453,-4.5498,-4.5563,-4.5601,-4.5677,-4.5738,-4.5795,-4.5816,-4.5797,-4.5797,-4.5814,-4.5815,-4.581,-4.5813,-4.56,-4.5791,-4.5789,-4.5788,-4.5787,-4.5787,-4.5293,-4.5343,-4.5382,-4.5442,-4.5473,-4.5512,-4.5562,-4.5579,-4.5633,-4.5695,-4.5692,-4.5764,-4.5803,-4.5877,-4.5903,-4.596,-4.5936,-4.5962,-4.5968,-4.5974,-4.598,-4.5804,-4.597,-4.597,-4.5969,-4.5969,-4.5969,0,-4.5449,-4.5473,-4.5528,-4.5586,-4.5634,-4.5614,-4.5659,-4.57,-4.5763,-4.5802,-4.5851,-4.5927,-4.5987,-4.6012,-4.6071,-4.6112,-4.6105,-4.6127,-4.6123,-4.6128,-4.5999,-4.5977,-4.6132,-4.6132,-4.6132,-4.6132,-4.6132,-4.6132,-4.5535,-4.562,-4.5628,-4.5729,-4.5753,-4.5823,-4.585,-4.5887,-4.5918,-4.6003,-4.6053,-4.6069,-4.6103,-4.6165,-4.622,-4.6226,-4.6248,-4.6274,-4.6276,-4.6154,-4.6137,-4.6121,-4.6101,-4.6279,-4.628,-4.6401,-4.6402,-4.6403]},{"header":{"parameterUnit":"m.s-1","parameterCategory":1,"la1":30.2991,"la2":30.254,"lo1":-89.0895,"lo2":-89.0444,"dx":0.0017,"dy":0.0017,"nx":28,"ny":28,"refTime":"2022-11-03T21:00:00:Z","depth":0,"parameterNumber":3,"parameterNumberName":"V-component_of_WINDS"},"data":[0,0,0,0,0,0,0,0,0,0,0,0,0,0,0,0,0,0,0,0,0,0,0,0,0,0,0,0,0,0,0,0,0,0,0,0,0,0,0,0,0,0,0,0,0,0,0,0,0,0,0,0,0,0,0,0,0,0,1.6684,1.6684,0,1.6689,1.6689,1.6689,1.6675,1.6675,1.6675,1.6674,1.6675,1.6675,1.6676,0,0,0,0,0,0,0,0,0,0,0,0,0,1.6662,1.6662,1.6684,1.6684,1.6685,1.6689,1.6689,1.6689,1.6676,1.6675,1.6675,1.6674,1.6675,1.6675,1.6676,0,0,0,0,0,0,0,0,0,0,0,0,0,1.6669,1.6662,1.6684,1.6678,1.6678,1.6689,1.6689,1.6689,1.6676,1.6675,1.6674,1.6674,1.6675,1.6675,1.6676,1.6692,0,0,1.6678,1.6678,0,0,0,0,0,0,0,0,1.6669,1.667,1.6679,1.6679,1.6678,1.6681,1.6681,1.669,1.6676,1.6676,1.6674,1.6674,1.6677,1.6678,1.668,1.6692,1.6692,1.6678,1.6678,1.6678,1.6679,0,0,0,0,0,0,0,1.6668,1.667,1.6686,1.6679,1.6679,1.6675,1.6675,1.6683,1.668,1.6676,1.6675,1.6676,1.6677,1.6679,1.668,1.6692,1.6678,1.6678,1.6679,1.6679,1.6721,1.6721,0,0,0,0,0,0,1.6669,1.6669,1.6686,1.6686,1.6672,1.6676,1.6676,1.6681,1.668,1.6679,1.6677,1.6676,1.6678,1.6679,1.668,1.67,1.6678,1.6679,1.6679,1.672,1.6721,1.6722,0,0,0,0,0,0,1.6669,1.6671,1.6686,1.6678,1.6679,1.6677,1.6682,1.6681,1.6684,1.668,1.668,1.668,1.6678,1.6679,1.669,1.67,1.6679,1.668,1.6719,1.672,1.6721,1.674,0,0,0,0,0,0,1.6668,1.6671,1.6677,1.6678,1.668,1.6697,1.6683,1.6682,1.6685,1.6684,1.6683,1.6682,1.6678,1.6689,1.6691,1.67,1.668,1.6718,1.672,1.6721,1.6739,1.6742,1.6745,0,0,0,0,0,1.6667,1.668,1.6677,1.6679,1.6688,1.6697,1.6698,1.6694,1.6686,1.6692,1.6691,1.6682,1.6699,1.669,1.6692,1.6702,1.6718,1.6719,1.6721,1.6737,1.6741,1.6745,0,0,0,0,0,0,1.6678,1.668,1.6677,1.6691,1.6694,1.6695,1.6702,1.6697,1.6702,1.67,1.6693,1.6693,1.6706,1.6705,1.6695,1.6719,1.6707,1.6709,1.6719,1.6723,1.6726,1.6725,1.6681,0,0,0,0,0,1.6682,1.6691,1.6692,1.6704,1.6706,1.6704,1.6708,1.6705,1.6707,1.6708,1.6707,1.6709,1.6715,1.6719,1.6724,1.6739,1.6739,1.6747,1.675,1.6753,1.6754,1.6764,1.6768,1.6727,1.6727,1.6727,0,0,1.669,1.6693,1.6698,1.6707,1.6709,1.6717,1.6705,1.6714,1.672,1.6709,1.672,1.672,1.6722,1.6736,1.6742,1.6736,1.6766,1.6755,1.6757,1.6757,1.6766,1.677,1.6774,1.6728,1.6728,1.6728,0,0,1.671,1.6713,1.6724,1.6728,1.6732,1.6732,1.6735,1.6737,1.6737,1.6749,1.6741,1.6749,1.6758,1.6761,1.6763,1.6788,1.6781,1.679,1.6805,1.6815,1.6818,1.6821,1.6831,1.6834,1.6792,1.6792,1.6792,0,1.6719,1.6733,1.673,1.6741,1.6745,1.6738,1.6751,1.6753,1.6759,1.6762,1.6755,1.677,1.677,1.6786,1.6793,1.6794,1.6798,1.6789,1.6818,1.6821,1.6823,1.6833,1.6836,1.6793,1.6793,1.6793,1.6792,0,1.6744,1.6754,1.6763,1.6771,1.6777,1.6788,1.6787,1.6793,1.679,1.679,1.6804,1.6805,1.6811,1.6815,1.6811,1.6831,1.6827,1.6819,1.6807,1.6828,1.6837,1.684,1.6794,1.6794,1.6794,1.6793,0,0,1.6768,1.6778,1.6781,1.6786,1.6792,1.6799,1.6811,1.6819,1.6825,1.683,1.684,1.685,1.6845,1.6847,1.6844,1.6853,1.6875,1.6845,1.6845,1.6851,1.6898,1.6904,1.6908,1.6871,1.6871,1.6872,1.6898,0,1.6788,1.6809,1.6809,1.6829,1.6839,1.6834,1.6845,1.685,1.6851,1.6859,1.686,1.6868,1.6859,1.6861,1.687,1.687,1.6884,1.6868,1.6879,1.688,1.6879,1.6912,1.6917,1.6942,1.6901,1.6902,1.6902,0,1.6814,1.6822,1.6844,1.6852,1.6856,1.6865,1.6874,1.6882,1.6888,1.6889,1.6894,1.6891,1.6903,1.6891,1.6908,1.6898,1.6903,1.6904,1.6905,1.6905,1.6892,1.6913,1.6949,1.6953,1.6907,1.6907,1.6907,0,1.683,1.6847,1.6862,1.6867,1.6876,1.6883,1.6887,1.6893,1.6899,1.6907,1.6911,1.6919,1.6924,1.6931,1.693,1.6921,1.6947,1.6935,1.6948,1.6948,1.6953,1.6952,1.699,1.6956,1.6956,1.6956,1.6956,0,1.6852,1.6865,1.687,1.688,1.6895,1.6896,1.6911,1.6914,1.692,1.693,1.6926,1.6935,1.6934,1.6943,1.6942,1.6958,1.6959,1.696,1.696,1.696,1.696,1.6963,1.6961,1.6957,1.6957,1.6957,1.6956,0,1.6872,1.6876,1.6893,1.6902,1.6904,1.6915,1.6923,1.6932,1.6934,1.6947,1.695,1.6953,1.6965,1.6965,1.6977,1.6977,1.6996,1.6993,1.6994,1.6994,1.7007,1.7006,1.7047,1.7053,1.7015,1.7015,1.7016,0,1.6886,1.6897,1.6908,1.6915,1.6921,1.6932,1.694,1.6941,1.6949,1.6959,1.6967,1.6979,1.6988,1.7006,1.7009,1.7019,1.7017,1.7031,1.7018,1.702,1.7018,1.7017,1.7019,1.7033,1.7033,1.7034,1.7034,0,1.691,1.6913,1.6924,1.6937,1.6946,1.6956,1.6965,1.6971,1.6974,1.6983,1.6996,1.7003,1.7018,1.7029,1.704,1.7043,1.7039,1.7039,1.7042,1.7043,1.7043,1.7044,1.7001,1.7037,1.7037,1.7037,1.7036,1.7036,1.6928,1.6938,1.6949,1.6962,1.697,1.6979,1.699,1.6995,1.7006,1.7019,1.7019,1.7034,1.7042,1.7056,1.7061,1.7073,1.7067,1.7072,1.7074,1.7075,1.7077,1.7042,1.7074,1.7074,1.7074,1.7074,1.7074,0,1.6953,1.6961,1.6973,1.6988,1.6999,1.6997,1.7007,1.7016,1.703,1.7039,1.7049,1.7065,1.7078,1.7083,1.7095,1.7103,1.7102,1.7106,1.7105,1.7107,1.708,1.7076,1.7107,1.7107,1.7107,1.7107,1.7107,1.7107,1.6967,1.6985,1.699,1.7012,1.7019,1.7035,1.7041,1.705,1.7058,1.7077,1.7088,1.7092,1.71,1.7114,1.7125,1.7126,1.7131,1.7137,1.7137,1.7112,1.7108,1.7105,1.7101,1.7138,1.7138,1.7163,1.7163,1.7163]}]]